Weather in Osek

Czech Republic     50°37′27″N   13°41′27″E
temp.,
°C
wind,
m/s
gust,
m/s
humid.,
%
clouds,
%
prec.,
mm/h
press.,
hPa
HPBL,
m
10 may, mon
mon1023:00+12e369468 0.0 1011117
02:00+10ne3492100 0.0 101182
05:00+9e119222 0.0 101014
08:00+12ese2283100 0.0 1010281
11:00+17sse236965 0.0 1011622
14:00+22se115783 0.0 1010853
17:00+23ese335822 0.0 10091096
20:00+18ene488215 0.0 1010193
11 may, tue
tue1123:00+14ene3992100 0.0 1009193
02:00+12ene2595100 0.0 1008132
05:00+11ne249683 0.0 100794
08:00+14se2486100 0.0 1007376
11:00+18sse227496 0.0 1007811
14:00+21s226588 0.0 10061103
17:00+22e226399 0.0 1005738
20:00+17nnw3590100 1.6 1005146
12 may, wed
wed1223:00+14nw359784 2.8 1006181
02:00+13nnw3695100 4.5 1006345
05:00+12wnw2595100 1.9 1007361
08:00+11nnw2592100 3.1 1008380
11:00+11nnw2389100 0.1 1008425
14:00+12nnw3487100 0.2 1008513
17:00+12nnw3585100 0.0 1008612
20:00+11nnw3688100 0.1 1007567
13 may, thu
thu1323:00+10nw2794100 0.1 1007602
02:00+10wnw1497100 6.5 1005288
05:00+10nnw1496100 5.8 1005319
08:00+10nw2595100 5.9 1005476
11:00+10nw2495100 0.0 1005476
14:00+9nw3595100 0.1 1005531
17:00+9nw3692100 0.0 1005515
20:00+9nw2692100 0.0 1006486
14 may, fri
fri1423:00+8nw2693100 0.0 1007462
02:00+8wnw2593100 0.0 1007420
05:00+8wnw238999 0.0 1007179
08:00+9wnw2587100 0.0 1008585
11:00+10wnw2380100 0.0 1009757
14:00+12wnw3372100 0.1 10091036
17:00+12wnw347376 0.1 1010832
20:00+11wnw1178100 0.1 101029